Key West, FL

7:22 AM EDT on June 19, 2018 (GMT -0400)
Key West International

Weather History for KEYW - June, 2018

Change the Weather History Date:

Wednesday, June 13, 2018

  Actual Average Record
Temperature  
Mean Temperature 83 °F 83 °F  
Max Temperature 87 °F 88 °F 94 °F (1878)
Min Temperature 79 °F 79 °F 69 °F (1894)
Degree Days  
Heating Degree Days 0 0  
Month to date heating degree days 0 0  
Since 1 June heating degree days 0 0  
Since 1 July heating degree days 44 73  
Cooling Degree Days 18 18  
Month to date cooling degree days 225 231  
Year to date cooling degree days 1750 1661  
Since 1 June cooling degree days 225 231  
Growing Degree Days 33 (Base 50)    
Moisture  
Dew Point 77 °F    
Average Humidity 82    
Maximum Humidity 94    
Minimum Humidity 70    
Precipitation  
Precipitation 0.00 in 0.14 in 5.04 in (1900)
Month to date precipitation 1.61 1.82  
Year to date precipitation 19.35 12.45  
Snow  
Snow 0.00 in - - ()
Month to date snowfall 0.0  
Since 1 June snowfall 0.0  
Since 1 July snowfall 0.0  
Snow Depth 0.00 in    
Sea Level Pressure  
Sea Level Pressure 30.06 in    
Wind  
Wind Speed 8 mph (ESE)    
Max Wind Speed 14 mph    
Max Gust Speed 17 mph    
Visibility 10 miles    
Events Thunderstorm    
T = Trace of Precipitation, MM = Missing Value Source: NWS Daily Summary

Daily Weather History Graph

Daily Weather History Graph

Search for Another Location

Airport or City:

Astronomy

Jun. 13, 2018 Rise Set
Actual Time 6:37 AM EDT 8:16 PM EDT
Civil Twilight 6:12 AM EDT 8:42 PM EDT
Nautical Twilight 5:41 AM EDT 9:12 PM EDT
Astronomical Twilight 5:09 AM EDT 9:45 PM EDT
Moon 6:30 AM EDT (6/13) 8:16 PM EDT (6/13)
Length of Visible Light 14h 30m
Length of Day
13h 38m
Waning Crescent, 0% of the Moon is Illuminated
Jun 13
Waning Crescent
Jun 13
New
Jun 20
First Quarter
Jun 28
Full
Jul 6
Last Quarter

Hourly Weather History & Observations

Time (EDT) Temp. Heat Index Dew Point Humidity Pressure Visibility Wind Dir Wind Speed Gust Speed Precip Events Conditions
12:53 AM 82.0 °F 91.0 °F 78.1 °F 88% 30.06 in 10.0 mi ESE 11.5 mph - N/A   Clear
1:53 AM 82.0 °F 91.0 °F 78.1 °F 88% 30.05 in 10.0 mi ESE 9.2 mph - N/A   Partly Cloudy
2:53 AM 81.0 °F 88.6 °F 78.1 °F 91% 30.02 in 10.0 mi SE 5.8 mph - N/A   Scattered Clouds
3:53 AM 82.0 °F 91.0 °F 78.1 °F 88% 30.01 in 10.0 mi SSE 8.1 mph - N/A   Scattered Clouds
4:04 AM 82.0 °F 91.6 °F 79.0 °F 90% 30.01 in 10.0 mi SSE 8.1 mph - N/A   Mostly Cloudy
4:11 AM 82.0 °F 91.0 °F 78.1 °F 88% 30.01 in 10.0 mi SSE 9.2 mph - N/A   Scattered Clouds
4:53 AM 81.0 °F 87.9 °F 77.0 °F 88% 30.01 in 10.0 mi South 3.5 mph - N/A   Clear
5:53 AM 80.1 °F 86.7 °F 79.0 °F 96% 30.02 in 10.0 mi Calm Calm - N/A   Clear
6:53 AM 81.0 °F 88.6 °F 78.1 °F 91% 30.04 in 10.0 mi ENE 3.5 mph - N/A   Partly Cloudy
7:53 AM 82.0 °F 91.0 °F 78.1 °F 88% 30.06 in 10.0 mi East 4.6 mph - N/A   Clear
8:53 AM 82.0 °F 91.0 °F 78.1 °F 88% 30.09 in 10.0 mi East 5.8 mph - N/A   Scattered Clouds
9:53 AM 84.0 °F 94.8 °F 78.1 °F 82% 30.09 in 10.0 mi ESE 8.1 mph - N/A   Mostly Cloudy
10:53 AM 84.0 °F 94.8 °F 78.1 °F 82% 30.11 in 10.0 mi ESE 8.1 mph - N/A   Scattered Clouds
11:53 AM 84.9 °F 94.1 °F 75.9 °F 74% 30.12 in 10.0 mi SE 8.1 mph - N/A   Partly Cloudy
12:24 PM 84.9 °F 95.3 °F 77.0 °F 77% 30.12 in 10.0 mi East 6.9 mph - N/A Thunderstorm Clear
12:39 PM 86.0 °F 95.1 °F 75.0 °F 70% 30.12 in 10.0 mi East 6.9 mph - N/A   Clear
12:53 PM 86.0 °F 96.0 °F 75.9 °F 72% 30.11 in 10.0 mi East 8.1 mph - N/A   Clear
1:53 PM 86.0 °F 95.1 °F 75.0 °F 70% 30.10 in 10.0 mi SE 6.9 mph - N/A   Clear
2:53 PM 86.0 °F 98.3 °F 78.1 °F 77% 30.07 in 10.0 mi ESE 5.8 mph - N/A   Clear
3:53 PM 84.9 °F 96.6 °F 78.1 °F 80% 30.06 in 10.0 mi ESE 5.8 mph - N/A   Clear
4:53 PM 87.1 °F 99.8 °F 78.1 °F 74% 30.04 in 10.0 mi East 8.1 mph - N/A   Clear
5:53 PM 84.9 °F 94.1 °F 75.9 °F 74% 30.04 in 10.0 mi SE 9.2 mph - N/A   Clear
6:53 PM 84.9 °F 93.3 °F 75.0 °F 72% 30.04 in 10.0 mi ESE 10.4 mph - N/A   Clear
7:53 PM 82.9 °F 91.8 °F 77.0 °F 82% 30.04 in 10.0 mi ESE 10.4 mph - N/A   Clear
8:53 PM 82.0 °F 89.4 °F 75.9 °F 82% 30.06 in 10.0 mi ESE 10.4 mph - N/A   Clear
9:53 PM 82.0 °F 88.6 °F 75.0 °F 79% 30.07 in 10.0 mi ESE 10.4 mph - N/A   Clear
10:53 PM 82.9 °F 90.8 °F 75.9 °F 79% 30.09 in 10.0 mi ESE 11.5 mph - N/A   Partly Cloudy
11:53 PM 82.0 °F 89.4 °F 75.9 °F 82% 30.07 in 10.0 mi ESE 10.4 mph - N/A   Clear